Flag for U.S.A. Weather past 2 weeks in Santa Clara, California, U.S.A.

Now
53 °F

Clear.


Feels Like: 53 °F
Forecast: 54 / 79 °F
Wind: No wind

Location: San Jose International Airport

Current Time: Sep 5, 2015 at 7:26:48 AM

Latest Report: Sep 5, 2015 at 6:53 AM


Visibility: 10 mi

Pressure: 29.95 "Hg

Humidity: 86%

Dew point: 49 °F

Location of Santa ClaraLocation

Historic Weather in Santa Clara — Graph

°F

Santa Clara temperature yesterday

Maximum temperature yesterday: 75 °F (at 2:53 PM)
Minimum temperature yesterday: 55 °F (at 6:53 AM)
Average temperature yesterday: 63 °F

Past Weeks' High & Low Weather Summary

 TemperatureHumidityPressure
High94 °F (Aug 28, 2:53 PM)94% (Aug 29, 4:00 AM)30.06 "Hg (Aug 29, 4:00 AM)
Low53 °F (Sep 5, 5:53 AM)18% (Aug 27, 2:53 PM)29.82 "Hg (Aug 28, 3:53 PM)
Average68 °F66%29.94 "Hg
* Reported Aug 21 5:53 AM — Sep 5 5:53 AM, Santa Clara, Weather by CustomWeather, © 2015

Note: Actual official high and low records may vary slightly from our data, if they occured in-between our weather recording intervals... More about our weather records

Advertising

Santa Clara weather history for previous 24 hours

 ConditionsComfort  
Time TempWeatherWind HumidityBarometerVisibility
5:53 AM
Sat, Sep 5
53 °FClear.5 mph83%29.93 "Hg10 mi
4:53 AM54 °FClear.3 mph80%29.92 "Hg10 mi
3:53 AM54 °FClear.5 mph80%29.91 "Hg10 mi
2:53 AM56 °FClear.7 mph72%29.90 "Hg10 mi
1:53 AM54 °FClear.7 mph69%29.91 "Hg10 mi
12:53 AM59 °FClear.No wind64%29.91 "Hg10 mi
11:53 PM
Fri, Sep 4
61 °FPassing clouds.3 mph60%29.91 "Hg10 mi
10:53 PM60 °FPassing clouds.No wind62%29.91 "Hg10 mi
9:53 PM62 °FPassing clouds.No wind58%29.91 "Hg10 mi
8:53 PM62 °FPartly cloudy.5 mph56%29.90 "Hg10 mi
7:53 PM63 °FBroken clouds.7 mph54%29.89 "Hg10 mi
6:53 PM65 °FBroken clouds.9 mph52%29.88 "Hg10 mi
5:53 PM69 °FBroken clouds.15 mph45%29.88 "Hg10 mi
4:53 PM72 °FPassing clouds.20 mph43%29.87 "Hg10 mi
3:53 PM74 °FPassing clouds.21 mph38%29.86 "Hg10 mi
2:53 PM75 °FPassing clouds.13 mph34%29.86 "Hg10 mi
1:53 PM74 °FPassing clouds.12 mph38%29.87 "Hg10 mi
12:53 PM72 °FPassing clouds.3 mph37%29.87 "Hg10 mi
11:53 AM71 °FSunny.No wind41%29.89 "Hg10 mi
10:53 AM66 °FSunny.3 mph49%29.90 "Hg10 mi
9:53 AM63 °FPassing clouds.9 mph63%29.90 "Hg10 mi
8:53 AM60 °FPassing clouds.12 mph72%29.89 "Hg10 mi
7:53 AM57 °FPassing clouds.12 mph83%29.88 "Hg10 mi
Weather by CustomWeather, © 2015

See weather overviewHow to use our weather pages